North Myrtle Beach, SC

8:12 PM EST on January 20, 2018 (GMT -0500)
Grand Strand

Weather History for KCRE - May, 2013

Change the Weather History Date:

Thursday, May 16, 2013

  Actual Average Record
Temperature  
Mean Temperature 77 °F 70 °F  
Max Temperature 89 °F 79 °F 90 °F (1994)
Min Temperature 64 °F 61 °F 48 °F (1951)
Degree Days  
Heating Degree Days 0 1  
Month to date heating degree days 23 21  
Since 1 July heating degree days 2413 2444  
Cooling Degree Days 12 5  
Month to date cooling degree days 46 64  
Year to date cooling degree days 80 106  
Growing Degree Days 24 (Base 50)    
Moisture  
Dew Point 63 °F    
Average Humidity 65    
Maximum Humidity 81    
Minimum Humidity 48    
Precipitation  
Precipitation 0.00 in 0.11 in 0.39 in (2014)
Month to date precipitation 0.87 1.63  
Year to date precipitation 15.93 15.62  
Sea Level Pressure  
Sea Level Pressure 30.00 in    
Wind  
Wind Speed 8 mph (SW)    
Max Wind Speed 17 mph    
Max Gust Speed 22 mph    
Visibility 10 miles    
Events      
T = Trace of Precipitation, MM = Missing Value Source: NWS Daily Summary

Daily Weather History Graph

Daily Weather History Graph

Search for Another Location

Airport or City:

Trip Planner

Search our weather history database for the weather conditions in past years. The results will help you decide how hot, cold, wet, or windy it might be!

Date:

Astronomy

May. 16, 2013 Rise Set
Actual Time 6:12 AM EDT 8:09 PM EDT
Civil Twilight 5:45 AM EDT 8:37 PM EDT
Nautical Twilight 5:11 AM EDT 9:11 PM EDT
Astronomical Twilight 4:36 AM EDT 9:47 PM EDT
Moon 11:39 AM EDT (5/16) 12:33 AM EDT (5/16)
Length of Visible Light 14h 52m
Length of Day
13h 56m
Waxing Crescent, 35% of the Moon is Illuminated
May 16
Waxing Crescent
May 18
First Quarter
May 25
Full
May 31
Last Quarter
Jun 8
New

Hourly Weather History & Observations

Time (EDT) Temp. Heat Index Dew Point Humidity Pressure Visibility Wind Dir Wind Speed Gust Speed Precip Events Conditions
12:53 AM 69.1 °F - 62.1 °F 78% 30.01 in 10.0 mi SW 12.7 mph - N/A   Clear
1:53 AM 66.0 °F - 60.1 °F 81% 30.00 in 10.0 mi SW 6.9 mph - N/A   Clear
2:53 AM 68.0 °F - 57.9 °F 70% 29.99 in 10.0 mi WSW 9.2 mph - N/A   Clear
3:53 AM 68.0 °F - 57.9 °F 70% 29.98 in 10.0 mi SW 8.1 mph - N/A   Clear
4:53 AM 66.9 °F - 57.9 °F 73% 29.98 in 10.0 mi WSW 5.8 mph - N/A   Clear
5:53 AM 64.0 °F - 57.9 °F 80% 29.98 in 10.0 mi WSW 4.6 mph - N/A   Clear
6:53 AM 66.0 °F - 57.9 °F 75% 29.99 in 10.0 mi SW 6.9 mph - N/A   Clear
7:53 AM 69.1 °F - 59.0 °F 70% 30.01 in 10.0 mi WSW 6.9 mph - N/A   Clear
8:53 AM 73.9 °F - 59.0 °F 59% 30.01 in 10.0 mi WSW 6.9 mph - N/A   Clear
9:53 AM 78.1 °F - 60.1 °F 54% 30.02 in 10.0 mi Variable 3.5 mph - N/A   Clear
10:53 AM 78.1 °F - 64.0 °F 62% 30.03 in 10.0 mi South 9.2 mph - N/A   Clear
11:53 AM 79.0 °F - 64.0 °F 60% 30.03 in 10.0 mi South 12.7 mph - N/A   Clear
12:53 PM 82.0 °F 83.8 °F 64.9 °F 56% 30.02 in 10.0 mi SSW 9.2 mph - N/A   Clear
1:53 PM 84.9 °F 85.9 °F 63.0 °F 48% 30.00 in 10.0 mi West 9.2 mph - N/A   Clear
2:53 PM 79.0 °F - 64.9 °F 62% 30.00 in 10.0 mi SSW 11.5 mph - N/A   Clear
3:28 PM 78.8 °F - 66.2 °F 65% 29.99 in 10.0 mi SSW 10.4 mph - N/A   Partly Cloudy
3:53 PM 81.0 °F 82.7 °F 64.9 °F 58% 29.99 in 10.0 mi SSW 10.4 mph - N/A   Clear
4:53 PM 80.1 °F 81.9 °F 64.9 °F 60% 29.98 in 10.0 mi SSW 9.2 mph - N/A   Clear
5:53 PM 75.9 °F - 66.9 °F 74% 29.97 in 10.0 mi SSW 9.2 mph - N/A   Clear
6:53 PM 73.0 °F - 66.9 °F 81% 29.98 in 10.0 mi SSW 15.0 mph - N/A   Clear
7:53 PM 75.0 °F - 66.9 °F 76% 29.98 in 10.0 mi SW 13.8 mph - N/A   Clear
8:53 PM 73.9 °F - 66.9 °F 79% 30.01 in 10.0 mi SW 4.6 mph - N/A   Clear
10:53 PM 75.0 °F - 64.9 °F 71% 30.04 in 9.0 mi WSW 6.9 mph - N/A   Clear
11:53 PM 73.9 °F - 64.9 °F 73% 30.04 in 10.0 mi WSW 6.9 mph - N/A   Clear